User: anonymous   Login
Location: Spruce Knob
(38.6995°N, 79.5330°W)
Time: 00:20:45
(UTC-04:00)
Language:

XW-2C - Orbit

View from above orbital plane
View from above orbital plane
View from above satellite
View from above satellite

Ground track
Ground track

The orbit data is extracted from the following two-line orbital elements,

1 40906U 15049H   23088.00173951  .00019170  00000-0  78541-3 0  9991
2 40906  97.4972  94.9837 0014620  85.4900 300.6108 15.24230693416170
Epoch (UTC): 29 March 2023 00:02:30
Eccentricity: 0.0014620
inclination: 97.4972°
perigee height: 483 km
apogee height: 503 km
right ascension of ascending node: 94.9837°
argument of perigee: 85.4900°
revolutions per day: 15.24230693
mean anomaly at epoch: 300.6108°
orbit number at epoch: 41617

The dashed part of the orbit path shows where the satellite is in the earth's shadow,  

DLR